This demonstration page uses our WeatherBlox Daily Observations layout. Learn more.

Left ArrowRight Arrow

Hourly Observations for September 5, 2019

Temp ( °F °C ) Dew Point ( °F °C ) Humidity (%) Winds ( mph kmh ) Pressure ( in mb ) Visibility ( mi km ) Precip ( " mm )
12:51 am 00:51 Clear 81 27.2 43 6.1 26 26 ESE 8 13 29.89 1012 10 16 0.00 0.00
1:51 am 01:51 Clear 78 25.6 43 6.1 29 29 E 7 11 29.90 1012 10 16 0.00 0.00
2:51 am 02:51 Clear 77 25 43 6.1 30 30 ESE 8 13 29.90 1013 10 16 0.00 0.00
3:51 am 03:51 Clear 76 24.4 45 7.2 33 33 E 6 9 29.91 1013 10 16 0.00 0.00
4:51 am 04:51 Clear 75 23.9 45 7.2 34 34 SSE 7 11 29.92 1013 10 16 0.00 0.00
5:51 am 05:51 Clear 73 22.8 45 7.2 37 37 ESE 3 6 29.95 1014 10 16 0.00 0.00
6:51 am 06:51 undefined 77 25 46 7.8 33 33 ESE 6 9 29.96 1015 10 16 0.00 0.00
7:51 am 07:51 Sunny 84 28.9 46 7.8 27 27 ESE 12 19 29.96 1015 10 16 0.00 0.00
8:51 am 08:51 Sunny 88 31.1 45 7.2 22 22 ESE 9 15 29.98 1015 10 16 0.00 0.00
9:51 am 09:51 Sunny 92 33.3 46 7.8 21 21 SE 12 19 29.97 1015 10 16 0.00 0.00
10:51 am 10:51 Sunny 93 33.9 46 7.8 20 20 Calm 29.95 1014 10 16 0.00 0.00
11:51 am 11:51 Sunny 95 35 45 7.2 18 18 VRB 7 11 29.93 1014 10 16 0.00 0.00
12:51 pm 12:51 Sunny 98 36.7 44 6.7 16 16 undefined N/A 29.91 1013 10 16 0.00 0.00
1:51 pm 13:51 undefined 99 37.2 44 6.7 15 15 Calm 29.89 1012 10 16 0.00 0.00
2:51 pm 14:51 Sunny 98 36.7 44 6.7 16 16 VRB 6 9 29.85 1011 10 16 0.00 0.00
3:51 pm 15:51 Cloudy 99 37.2 43 6.1 15 15 SSW 9 15 29.85 1011 10 16 0.00 0.00
4:51 pm 16:51 Sunny 99 37.2 43 6.1 15 15 ESE 8 13 29.83 1010 10 16 0.00 0.00
5:51 pm 17:51 Sunny 98 36.7 43 6.1 15 15 VRB 5 7 29.83 1010 10 16 0.00 0.00
6:51 pm 18:51 Clear 93 33.9 44 6.7 18 18 Calm 29.84 1011 10 16 0.00 0.00
7:51 pm 19:51 Clear 90 32.2 45 7.2 21 21 S 3 6 29.85 1011 10 16 0.00 0.00
8:51 pm 20:51 Clear 88 31.1 44 6.7 22 22 S 3 6 29.87 1012 10 16 0.00 0.00
9:51 pm 21:51 Clear 86 30 46 7.8 25 25 E 8 13 29.87 1012 10 16 0.00 0.00
10:51 pm 22:51 Clear 85 29.4 47 8.3 27 27 E 7 11 29.88 1012 10 16 0.00 0.00
11:51 pm 23:51 Clear 87 30.6 47 8.3 25 25 E 7 11 29.87 1011 10 16 0.00 0.00

Powered by AerisWeather